JLY1615 SBRJ-SBSP

Flight info

Callsign JLY1615
Flight time 0h 52m
Altitude 26000
Route NAXOP UZ45 IBDAL
Aircraft A320/M-SDE3FGHIRWY/LB1

Departure

Time 2026-05-04 00:25
Airport Santos Dumont Airport (SBRJ)

Arrival

Time 2026-05-04 01:17
Airport Congonhas–Deputado Freitas Nobre Airport (SBSP)
Time Latitude Longitude Altitude Speed Heading
2026-05-04 00:11 -22.91099 -43.16591 20 ft 0 kts 267°
2026-05-04 00:16 -22.91099 -43.16582 21 ft 4 kts 264°
2026-05-04 00:16 -22.91093 -43.16554 24 ft 4 kts 237°
2026-05-04 00:17 -22.91075 -43.16538 22 ft 4 kts 179°
2026-05-04 00:17 -22.91065 -43.16539 21 ft 1 kts 166°
2026-05-04 00:17 -22.91064 -43.16540 21 ft 0 kts 166°
2026-05-04 00:20 -22.91064 -43.16539 21 ft 0 kts 166°
2026-05-04 00:20 -22.91095 -43.16531 22 ft 6 kts 165°
2026-05-04 00:20 -22.91132 -43.16521 21 ft 5 kts 169°
2026-05-04 00:21 -22.91166 -43.16517 20 ft 5 kts 174°
2026-05-04 00:21 -22.91197 -43.16514 20 ft 5 kts 176°
2026-05-04 00:21 -22.91251 -43.16511 20 ft 8 kts 177°
2026-05-04 00:21 -22.91304 -43.16507 21 ft 7 kts 176°
2026-05-04 00:22 -22.91356 -43.16504 22 ft 7 kts 176°
2026-05-04 00:22 -22.91402 -43.16498 20 ft 6 kts 159°
2026-05-04 00:22 -22.91435 -43.16470 20 ft 6 kts 136°
2026-05-04 00:22 -22.91464 -43.16441 20 ft 6 kts 135°
2026-05-04 00:23 -22.91472 -43.16432 20 ft 0 kts 135°
2026-05-04 00:23 -22.91509 -43.16392 19 ft 13 kts 136°
2026-05-04 00:24 -22.91575 -43.16327 18 ft 12 kts 137°
2026-05-04 00:24 -22.91633 -43.16270 18 ft 8 kts 108°
2026-05-04 00:24 -22.91597 -43.16248 18 ft 6 kts
2026-05-04 00:24 -22.91590 -43.16248 18 ft 0 kts 359°
2026-05-04 00:25 -22.91447 -43.16257 18 ft 64 kts 356°
2026-05-04 00:25 -22.90722 -43.16304 26 ft 140 kts 357°
2026-05-04 00:25 -22.89671 -43.16368 594 ft 151 kts 356°
2026-05-04 00:25 -22.88626 -43.16238 1386 ft 155 kts 19°
2026-05-04 00:26 -22.87698 -43.15639 2010 ft 163 kts 46°
2026-05-04 00:26 -22.87069 -43.14553 2353 ft 181 kts 76°
2026-05-04 00:26 -22.86996 -43.13115 2677 ft 201 kts 103°
2026-05-04 00:26 -22.87287 -43.11539 2740 ft 236 kts 104°
2026-05-04 00:27 -22.87622 -43.09702 2622 ft 254 kts 103°
2026-05-04 00:27 -22.88189 -43.07878 2907 ft 258 kts 122°
2026-05-04 00:27 -22.89285 -43.06350 3983 ft 258 kts 139°
2026-05-04 00:27 -22.90781 -43.05274 4992 ft 261 kts 158°
2026-05-04 00:28 -22.92546 -43.04802 5950 ft 265 kts 176°
2026-05-04 00:28 -22.94397 -43.04963 6897 ft 271 kts 195°
2026-05-04 00:28 -22.96092 -43.05892 7759 ft 278 kts 220°
2026-05-04 00:28 -22.97292 -43.07534 8649 ft 281 kts 242°
2026-05-04 00:29 -22.98247 -43.09403 9564 ft 285 kts 243°
2026-05-04 00:29 -22.99197 -43.11294 10328 ft 296 kts 244°
2026-05-04 00:29 -23.00230 -43.13367 10649 ft 320 kts 244°
2026-05-04 00:29 -23.01332 -43.15574 10935 ft 344 kts 243°
2026-05-04 00:30 -23.02504 -43.17903 11114 ft 367 kts 243°
2026-05-04 00:30 -23.03770 -43.20406 11250 ft 390 kts 243°
2026-05-04 00:30 -23.05101 -43.23034 11653 ft 401 kts 243°
2026-05-04 00:30 -23.06453 -43.25702 12264 ft 406 kts 242°
2026-05-04 00:31 -23.07822 -43.28403 12906 ft 409 kts 242°
2026-05-04 00:31 -23.09197 -43.31120 13560 ft 412 kts 242°
2026-05-04 00:31 -23.10582 -43.33860 14189 ft 415 kts 242°
2026-05-04 00:31 -23.11975 -43.36619 14757 ft 417 kts 242°
2026-05-04 00:32 -23.13371 -43.39386 15294 ft 419 kts 242°
2026-05-04 00:32 -23.14775 -43.42167 15836 ft 420 kts 242°
2026-05-04 00:32 -23.16184 -43.44958 16375 ft 421 kts 243°
2026-05-04 00:32 -23.17573 -43.47712 16895 ft 422 kts 243°
2026-05-04 00:33 -23.18980 -43.50511 17407 ft 422 kts 243°
2026-05-04 00:33 -23.21799 -43.56131 18339 ft 425 kts 243°
2026-05-04 00:33 -23.23216 -43.58954 18745 ft 426 kts 243°
2026-05-04 00:34 -23.24637 -43.61784 19134 ft 426 kts 243°
2026-05-04 00:34 -23.26055 -43.64617 19507 ft 427 kts 243°
2026-05-04 00:34 -23.27476 -43.67454 19878 ft 428 kts 243°
2026-05-04 00:34 -23.28902 -43.70300 20233 ft 428 kts 243°
2026-05-04 00:35 -23.30328 -43.73148 20577 ft 429 kts 243°
2026-05-04 00:35 -23.31757 -43.76004 20907 ft 430 kts 243°
2026-05-04 00:35 -23.33187 -43.78867 21225 ft 431 kts 243°
2026-05-04 00:35 -23.34619 -43.81734 21533 ft 431 kts 243°
2026-05-04 00:36 -23.36053 -43.84605 21837 ft 432 kts 243°
2026-05-04 00:36 -23.37491 -43.87486 22133 ft 433 kts 243°
2026-05-04 00:36 -23.38928 -43.90367 22440 ft 434 kts 243°
2026-05-04 00:36 -23.40351 -43.93222 22754 ft 433 kts 243°
2026-05-04 00:37 -23.41792 -43.96113 23046 ft 434 kts 243°
2026-05-04 00:37 -23.43228 -43.99000 23307 ft 434 kts 244°
2026-05-04 00:37 -23.44668 -44.01897 23565 ft 435 kts 244°
2026-05-04 00:37 -23.46111 -44.04795 23771 ft 436 kts 244°
2026-05-04 00:38 -23.47562 -44.07711 23938 ft 437 kts 244°
2026-05-04 00:38 -23.49009 -44.10621 24090 ft 438 kts 244°
2026-05-04 00:38 -23.50435 -44.13507 24233 ft 438 kts 245°
2026-05-04 00:38 -23.51625 -44.16546 24441 ft 435 kts 252°
2026-05-04 00:39 -23.52444 -44.19710 24653 ft 433 kts 257°
2026-05-04 00:39 -23.53167 -44.22894 24880 ft 432 kts 257°
2026-05-04 00:39 -23.53895 -44.26072 25100 ft 431 kts 257°
2026-05-04 00:39 -23.54622 -44.29238 25328 ft 430 kts 257°
2026-05-04 00:40 -23.55348 -44.32392 25566 ft 429 kts 257°
2026-05-04 00:40 -23.56069 -44.35541 25811 ft 428 kts 257°
2026-05-04 00:40 -23.56546 -44.37630 25973 ft 427 kts 257°
2026-05-04 00:40 -23.57261 -44.40770 26171 ft 426 kts 257°
2026-05-04 00:41 -23.57973 -44.43905 26222 ft 426 kts 257°
2026-05-04 00:41 -23.58687 -44.47038 26231 ft 425 kts 257°
2026-05-04 00:41 -23.59399 -44.50164 26231 ft 425 kts 257°
2026-05-04 00:41 -23.60110 -44.53292 26231 ft 425 kts 257°
2026-05-04 00:42 -23.60818 -44.56421 26248 ft 425 kts 257°
2026-05-04 00:42 -23.61526 -44.59540 26229 ft 423 kts 257°
2026-05-04 00:42 -23.62236 -44.62655 26224 ft 423 kts 257°
2026-05-04 00:42 -23.62949 -44.65780 26232 ft 423 kts 257°
2026-05-04 00:43 -23.63658 -44.68896 26233 ft 423 kts 257°
2026-05-04 00:43 -23.64366 -44.72012 26233 ft 423 kts 257°
2026-05-04 00:43 -23.65062 -44.75092 26235 ft 423 kts 257°
2026-05-04 00:43 -23.65768 -44.78218 26234 ft 423 kts 257°
2026-05-04 00:44 -23.66469 -44.81334 26232 ft 423 kts 258°
2026-05-04 00:44 -23.67166 -44.84450 26234 ft 423 kts 258°
2026-05-04 00:44 -23.67862 -44.87572 26233 ft 423 kts 258°
2026-05-04 00:44 -23.68561 -44.90687 26235 ft 423 kts 258°
2026-05-04 00:45 -23.69265 -44.93814 26233 ft 424 kts 257°
2026-05-04 00:45 -23.69971 -44.96931 26250 ft 423 kts 257°
2026-05-04 00:45 -23.70672 -45.00052 26253 ft 423 kts 257°
2026-05-04 00:45 -23.71369 -45.03172 26253 ft 422 kts 258°
2026-05-04 00:46 -23.72061 -45.06285 26251 ft 422 kts 258°
2026-05-04 00:46 -23.72754 -45.09396 26250 ft 422 kts 258°
2026-05-04 00:46 -23.73447 -45.12508 26249 ft 422 kts 258°
2026-05-04 00:46 -23.74139 -45.15616 26250 ft 422 kts 258°
2026-05-04 00:47 -23.74830 -45.18730 26125 ft 422 kts 258°
2026-05-04 00:47 -23.75520 -45.21840 25887 ft 422 kts 257°
2026-05-04 00:47 -23.76206 -45.24928 25639 ft 427 kts 257°
2026-05-04 00:47 -23.76906 -45.28092 25407 ft 430 kts 257°
2026-05-04 00:48 -23.77608 -45.31266 25180 ft 431 kts 257°
2026-05-04 00:48 -23.78314 -45.34457 24950 ft 433 kts 257°
2026-05-04 00:48 -23.79022 -45.37663 24723 ft 434 kts 257°
2026-05-04 00:48 -23.79634 -45.40879 24506 ft 432 kts 262°
2026-05-04 00:49 -23.79894 -45.44147 24289 ft 431 kts 266°
2026-05-04 00:49 -23.80055 -45.47419 24073 ft 431 kts 266°
2026-05-04 00:49 -23.80220 -45.50686 23853 ft 430 kts 265°
2026-05-04 00:49 -23.80386 -45.53940 23599 ft 429 kts 265°
2026-05-04 00:50 -23.80554 -45.57195 23326 ft 428 kts 265°
2026-05-04 00:50 -23.80723 -45.60435 23076 ft 427 kts 265°
2026-05-04 00:50 -23.80893 -45.63670 22810 ft 426 kts 265°
2026-05-04 00:50 -23.81057 -45.66859 22359 ft 424 kts 265°
2026-05-04 00:51 -23.81219 -45.70067 21888 ft 423 kts 266°
2026-05-04 00:51 -23.81376 -45.73264 21416 ft 421 kts 266°
2026-05-04 00:51 -23.81535 -45.76461 20942 ft 420 kts 266°
2026-05-04 00:51 -23.81695 -45.79647 20484 ft 419 kts 266°
2026-05-04 00:52 -23.81856 -45.82828 20016 ft 418 kts 266°
2026-05-04 00:52 -23.82016 -45.86002 19549 ft 417 kts 266°
2026-05-04 00:52 -23.82173 -45.89168 19083 ft 417 kts 266°
2026-05-04 00:52 -23.82329 -45.92328 18616 ft 416 kts 266°
2026-05-04 00:53 -23.82485 -45.95479 18106 ft 415 kts 266°
2026-05-04 00:53 -23.82637 -45.98584 17652 ft 414 kts 266°
2026-05-04 00:53 -23.82788 -46.01722 17189 ft 413 kts 266°
2026-05-04 00:53 -23.82939 -46.04853 16729 ft 412 kts 266°
2026-05-04 00:54 -23.83090 -46.07978 16273 ft 411 kts 266°
2026-05-04 00:54 -23.83241 -46.11097 15817 ft 410 kts 266°
2026-05-04 00:54 -23.83390 -46.14212 15361 ft 409 kts 267°
2026-05-04 00:54 -23.83536 -46.17313 14900 ft 408 kts 267°
2026-05-04 00:55 -23.83682 -46.20410 14444 ft 408 kts 266°
2026-05-04 00:55 -23.83827 -46.23462 13984 ft 407 kts 267°
2026-05-04 00:55 -23.83974 -46.26557 13491 ft 406 kts 267°
2026-05-04 00:55 -23.84119 -46.29632 13037 ft 404 kts 267°
2026-05-04 00:56 -23.84264 -46.32687 12580 ft 401 kts 267°
2026-05-04 00:56 -23.84408 -46.35727 12136 ft 399 kts 267°
2026-05-04 00:56 -23.84551 -46.38738 11693 ft 394 kts 267°
2026-05-04 00:56 -23.84687 -46.41615 11359 ft 363 kts 267°
2026-05-04 00:57 -23.84812 -46.44254 11132 ft 333 kts 268°
2026-05-04 00:57 -23.84925 -46.46676 11000 ft 305 kts 268°
2026-05-04 00:57 -23.85028 -46.48899 10676 ft 291 kts 268°
2026-05-04 00:57 -23.85128 -46.51092 10445 ft 287 kts 268°
2026-05-04 00:58 -23.85225 -46.53262 10218 ft 285 kts 268°
2026-05-04 00:58 -23.85319 -46.55419 10090 ft 285 kts 268°
2026-05-04 00:58 -23.85412 -46.57583 9969 ft 285 kts 268°
2026-05-04 00:58 -23.85414 -46.59740 9838 ft 284 kts 278°
2026-05-04 00:59 -23.84879 -46.61809 9711 ft 283 kts 295°
2026-05-04 00:59 -23.83794 -46.63597 9587 ft 284 kts 313°
2026-05-04 00:59 -23.82254 -46.64957 9464 ft 285 kts 327°
2026-05-04 00:59 -23.80584 -46.66110 9340 ft 284 kts 327°
2026-05-04 01:00 -23.78918 -46.67263 9278 ft 283 kts 327°
2026-05-04 01:00 -23.77250 -46.68421 9290 ft 285 kts 327°
2026-05-04 01:00 -23.75576 -46.69581 9294 ft 285 kts 327°
2026-05-04 01:00 -23.73906 -46.70737 9296 ft 284 kts 326°
2026-05-04 01:01 -23.72245 -46.71892 9299 ft 283 kts 327°
2026-05-04 01:01 -23.70573 -46.73056 9055 ft 285 kts 327°
2026-05-04 01:01 -23.68917 -46.74205 8753 ft 281 kts 327°
2026-05-04 01:01 -23.67260 -46.75352 8304 ft 284 kts 327°
2026-05-04 01:02 -23.65597 -46.76504 7907 ft 281 kts 328°
2026-05-04 01:02 -23.63979 -46.77626 7610 ft 276 kts 328°
2026-05-04 01:02 -23.62362 -46.78750 7307 ft 267 kts 328°
2026-05-04 01:02 -23.60841 -46.79807 7017 ft 251 kts 329°
2026-05-04 01:03 -23.59429 -46.80788 6756 ft 237 kts 329°
2026-05-04 01:03 -23.57993 -46.81532 6483 ft 222 kts 352°
2026-05-04 01:03 -23.56529 -46.81456 6242 ft 204 kts 22°
2026-05-04 01:03 -23.55359 -46.80681 6025 ft 194 kts 49°
2026-05-04 01:04 -23.54600 -46.79506 5862 ft 185 kts 60°
2026-05-04 01:04 -23.53919 -46.78337 5600 ft 181 kts 60°
2026-05-04 01:04 -23.53258 -46.77215 5384 ft 176 kts 61°
2026-05-04 01:04 -23.52608 -46.76102 5172 ft 171 kts 64°
2026-05-04 01:05 -23.52248 -46.74885 4931 ft 162 kts 88°
2026-05-04 01:05 -23.52342 -46.73726 4811 ft 151 kts 107°
2026-05-04 01:05 -23.52788 -46.72733 4683 ft 143 kts 126°
2026-05-04 01:05 -23.53489 -46.71993 4530 ft 139 kts 144°
2026-05-04 01:06 -23.54290 -46.71440 4392 ft 134 kts 144°
2026-05-04 01:06 -23.55077 -46.70896 4219 ft 133 kts 144°
2026-05-04 01:06 -23.55854 -46.70359 4076 ft 132 kts 144°
2026-05-04 01:06 -23.56625 -46.69826 3905 ft 130 kts 145°
2026-05-04 01:07 -23.57391 -46.69297 3743 ft 130 kts 145°
2026-05-04 01:07 -23.58155 -46.68768 3572 ft 130 kts 145°
2026-05-04 01:07 -23.58918 -46.68241 3390 ft 130 kts 146°
2026-05-04 01:07 -23.59686 -46.67710 3208 ft 130 kts 146°
2026-05-04 01:08 -23.60449 -46.67183 3032 ft 130 kts 146°
2026-05-04 01:08 -23.61211 -46.66657 2851 ft 129 kts 146°
2026-05-04 01:08 -23.61972 -46.66129 2666 ft 129 kts 146°
2026-05-04 01:08 -23.62688 -46.65633 2624 ft 112 kts 147°
2026-05-04 01:09 -23.63441 -46.65111 3064 ft 140 kts 146°
2026-05-04 01:09 -23.64272 -46.64530 3915 ft 143 kts 150°
2026-05-04 01:09 -23.65281 -46.64554 4610 ft 159 kts 204°
2026-05-04 01:09 -23.65956 -46.65569 4807 ft 189 kts 258°
2026-05-04 01:10 -23.65672 -46.67045 5086 ft 215 kts 299°
2026-05-04 01:10 -23.64805 -46.68452 5457 ft 231 kts 308°
2026-05-04 01:10 -23.63832 -46.69843 5506 ft 229 kts 308°
2026-05-04 01:10 -23.62911 -46.71252 5511 ft 228 kts 303°
2026-05-04 01:11 -23.62072 -46.72715 5511 ft 228 kts 302°
2026-05-04 01:11 -23.61252 -46.74193 5509 ft 227 kts 301°
2026-05-04 01:11 -23.60438 -46.75674 5511 ft 229 kts 301°
2026-05-04 01:11 -23.59622 -46.77158 5506 ft 224 kts 302°
2026-05-04 01:12 -23.58792 -46.78547 5497 ft 215 kts 314°
2026-05-04 01:12 -23.57604 -46.79467 5501 ft 209 kts 342°
2026-05-04 01:12 -23.56197 -46.79704 5500 ft 203 kts
2026-05-04 01:12 -23.54873 -46.79270 5341 ft 196 kts 35°
2026-05-04 01:13 -23.53887 -46.78305 5173 ft 188 kts 59°
2026-05-04 01:13 -23.53199 -46.77120 5063 ft 181 kts 62°
2026-05-04 01:13 -23.52636 -46.75949 4914 ft 168 kts 76°
2026-05-04 01:13 -23.52461 -46.74759 4832 ft 153 kts 92°
2026-05-04 01:14 -23.52613 -46.73665 4732 ft 141 kts 108°
2026-05-04 01:14 -23.53018 -46.72722 4632 ft 136 kts 123°
2026-05-04 01:14 -23.53627 -46.71954 4528 ft 134 kts 136°
2026-05-04 01:14 -23.54394 -46.71368 4360 ft 134 kts 144°
2026-05-04 01:15 -23.55171 -46.70831 4191 ft 131 kts 144°
2026-05-04 01:15 -23.55940 -46.70300 4050 ft 130 kts 144°
2026-05-04 01:15 -23.56705 -46.69771 3886 ft 130 kts 145°
2026-05-04 01:15 -23.57464 -46.69246 3726 ft 129 kts 145°
2026-05-04 01:16 -23.58225 -46.68720 3559 ft 130 kts 145°
2026-05-04 01:16 -23.58986 -46.68194 3380 ft 130 kts 146°
2026-05-04 01:16 -23.59750 -46.67666 3195 ft 130 kts 146°
2026-05-04 01:16 -23.60509 -46.67141 3016 ft 129 kts 146°
2026-05-04 01:17 -23.61258 -46.66628 2834 ft 129 kts 146°
2026-05-04 01:17 -23.62009 -46.66102 2651 ft 128 kts 146°
2026-05-04 01:17 -23.62704 -46.65620 2621 ft 96 kts 147°
2026-05-04 01:17 -23.63016 -46.65404 2636 ft 16 kts 148°
2026-05-04 01:18 -23.63119 -46.65372 2639 ft 16 kts 183°
2026-05-04 01:18 -23.63173 -46.65433 2639 ft 12 kts 301°
2026-05-04 01:18 -23.63103 -46.65489 2636 ft 13 kts 328°
2026-05-04 01:18 -23.63007 -46.65523 2630 ft 16 kts 344°
2026-05-04 01:19 -23.62908 -46.65588 2626 ft 17 kts 327°
2026-05-04 01:19 -23.62810 -46.65654 2625 ft 16 kts 326°
2026-05-04 01:19 -23.62729 -46.65710 2622 ft 10 kts 327°
2026-05-04 01:19 -23.62688 -46.65764 2620 ft 9 kts 255°
2026-05-04 01:20 -23.62717 -46.65813 2620 ft 5 kts 237°
2026-05-04 01:20 -23.62722 -46.65821 2620 ft 0 kts 237°